When you browse on this site, cookies collect data to enhance your experience and personalize the content and advertising you see.
Visit our Privacy Policy to learn more. By continuing to use the site, you agree to this use of cookies and data.
  • In Latvia
  • List of Countries
  • For 7 days
  • Water Temperature
  • Weather Map
  • Weather Widgets
  • user-avatar
    Login

    Hourly Weather Kaprun

    Today, 3 June, Wednesday

    Time Temperature Precipitation Wind Pressure Humidity
    00:00 +2°C° 0 mm 1 mps 593 mmHg 87%
    01:00 +2°C° 0 mm 1 mps 593 mmHg 87%
    02:00 +2°C° 0 mm 1 mps 593 mmHg 84%
    03:00 +2°C° 0 mm 1 mps 592 mmHg 81%
    04:00 +2°C° 0 mm 1 mps 592 mmHg 78%
    05:00 +4°C° 0 mm 1 mps 593 mmHg 73%
    06:00 +6°C° 0 mm 1 mps 594 mmHg 68%
    07:00 +9°C° 0 mm 1 mps 595 mmHg 61%
    08:00 +10°C° 0 mm 1 mps 595 mmHg 54%
    09:00 +12°C° 0 mm 1 mps 595 mmHg 47%
    10:00 +13°C° 0 mm 1 mps 596 mmHg 40%
    11:00 +14°C° 0 mm 1 mps 595 mmHg 37%
    12:00 +14°C° 0 mm 1 mps 595 mmHg 35%
    13:00 +15°C° 0 mm 1 mps 595 mmHg 32%
    14:00 +14°C° 0.1 mm 1 mps 595 mmHg 36%
    15:00 +14°C° 0.1 mm 1 mps 594 mmHg 40%
    16:00 +13°C° 0.1 mm 1 mps 593 mmHg 44%
    17:00 +12°C° 0.1 mm 1 mps 593 mmHg 55%
    18:00 +11°C° 0.1 mm 1 mps 592 mmHg 65%
    19:00 +9°C° 0.1 mm 1 mps 591 mmHg 76%
    20:00 +8°C° 0 mm 1 mps 590 mmHg 77%
    21:00 +6°C° 0 mm 2 mps 590 mmHg 79%
    22:00 +4°C° 0 mm 2 mps 589 mmHg 81%
    23:00 +4°C° 0 mm 2 mps 589 mmHg 82%

    Tomorrow, 4 June, Thursday

    Time Temperature Precipitation Wind Pressure Humidity
    00:00 +4°C° 0 mm 2 mps 589 mmHg 83%
    01:00 +3°C° 0 mm 2 mps 588 mmHg 85%
    02:00 +3°C° 0 mm 2 mps 588 mmHg 85%
    03:00 +3°C° 0 mm 2 mps 588 mmHg 86%
    04:00 +3°C° 0 mm 2 mps 588 mmHg 86%
    05:00 +4°C° 0 mm 2 mps 588 mmHg 84%
    06:00 +6°C° 0 mm 2 mps 588 mmHg 81%
    07:00 +7°C° 0 mm 2 mps 589 mmHg 79%
    08:00 +8°C° 0.1 mm 2 mps 589 mmHg 74%
    09:00 +9°C° 0.1 mm 2 mps 590 mmHg 69%
    10:00 +12°C° 0.1 mm 2 mps 590 mmHg 64%
    11:00 +12°C° 0.2 mm 2 mps 590 mmHg 66%
    12:00 +12°C° 0.2 mm 2 mps 589 mmHg 67%
    13:00 +11°C° 0.2 mm 3 mps 589 mmHg 69%
    14:00 +10°C° 0.7 mm 3 mps 588 mmHg 76%
    15:00 +8°C° 0.7 mm 3 mps 588 mmHg 82%
    16:00 +7°C° 0.7 mm 3 mps 587 mmHg 89%
    17:00 +7°C° 0.4 mm 3 mps 586 mmHg 90%
    18:00 +5°C° 0.4 mm 3 mps 586 mmHg 90%
    19:00 +6°C° 0.4 mm 2 mps 586 mmHg 91%
    20:00 +5°C° 0.3 mm 2 mps 586 mmHg 92%
    21:00 +5°C° 0.3 mm 2 mps 585 mmHg 94%
    22:00 +5°C° 0.3 mm 1 mps 585 mmHg 95%
    23:00 +5°C° 2.5 mm 1 mps 585 mmHg 96%

    Day after tomorrow, 5 June, Friday

    Time Temperature Precipitation Wind Pressure Humidity
    00:00 +3°C° 2.5 mm 2 mps 585 mmHg 98%
    01:00 +3°C° 2.5 mm 2 mps 584 mmHg 99%
    02:00 +2°C° 3.3 mm 2 mps 584 mmHg 98%
    03:00 +2°C° 3.3 mm 2 mps 584 mmHg 98%
    04:00 +2°C° 3.3 mm 1 mps 584 mmHg 98%
    05:00 +2°C° 0.9 mm 1 mps 584 mmHg 98%
    06:00 +3°C° 0.9 mm 1 mps 584 mmHg 98%
    07:00 +3°C° 0.9 mm 1 mps 585 mmHg 98%
    08:00 +3°C° 1.7 mm 1 mps 585 mmHg 98%
    09:00 +3°C° 1.7 mm 1 mps 586 mmHg 98%
    10:00 +2°C° 1.7 mm 2 mps 586 mmHg 98%
    11:00 +4°C° 0.5 mm 1 mps 586 mmHg 97%
    12:00 +4°C° 0.5 mm 1 mps 587 mmHg 95%
    13:00 +4°C° 0.5 mm 1 mps 587 mmHg 94%
    14:00 +5°C° 0.2 mm 1 mps 588 mmHg 91%
    15:00 +6°C° 0.2 mm 1 mps 588 mmHg 87%
    16:00 +6°C° 0.2 mm 1 mps 588 mmHg 84%
    17:00 +6°C° 0.1 mm 1 mps 588 mmHg 85%
    18:00 +6°C° 0.1 mm 1 mps 588 mmHg 86%
    19:00 +5°C° 0.1 mm 1 mps 588 mmHg 87%
    20:00 +4°C° 0 mm 1 mps 588 mmHg 88%
    21:00 +2°C° 0 mm 1 mps 588 mmHg 89%
    22:00 +1°C° 0 mm 1 mps 588 mmHg 90%
    23:00 +1°C° 0 mm 1 mps 589 mmHg 90%

    6 June, Saturday

    Time Temperature Precipitation Wind Pressure Humidity
    00:00 -1°C° 0 mm 2 mps 589 mmHg 90%
    01:00 -1°C° 0 mm 2 mps 589 mmHg 90%
    02:00 +1°C° 0 mm 2 mps 589 mmHg 91%
    03:00 +1°C° 0 mm 2 mps 589 mmHg 91%
    04:00 +1°C° 0 mm 2 mps 590 mmHg 92%
    05:00 +3°C° 0 mm 2 mps 590 mmHg 89%
    06:00 +4°C° 0 mm 2 mps 591 mmHg 85%
    07:00 +5°C° 0 mm 2 mps 592 mmHg 82%
    08:00 +7°C° 0 mm 2 mps 593 mmHg 77%
    09:00 +8°C° 0 mm 2 mps 594 mmHg 72%
    10:00 +10°C° 0 mm 2 mps 594 mmHg 68%
    11:00 +10°C° 0.2 mm 2 mps 594 mmHg 69%
    12:00 +10°C° 0.2 mm 2 mps 594 mmHg 71%
    13:00 +10°C° 0.2 mm 2 mps 594 mmHg 73%
    14:00 +10°C° 0.5 mm 2 mps 594 mmHg 76%
    15:00 +10°C° 0.5 mm 2 mps 594 mmHg 78%
    16:00 +10°C° 0.5 mm 2 mps 594 mmHg 81%
    17:00 +9°C° 0.6 mm 2 mps 593 mmHg 86%
    18:00 +9°C° 0.6 mm 1 mps 593 mmHg 91%
    19:00 +8°C° 0.6 mm 1 mps 593 mmHg 96%
    20:00 +7°C° 0.4 mm 1 mps 593 mmHg 97%
    21:00 +7°C° 0.4 mm 1 mps 593 mmHg 98%
    22:00 +6°C° 0.4 mm 1 mps 593 mmHg 98%
    23:00 +6°C° 0.3 mm 1 mps 593 mmHg 98%

    7 June, Sunday

    Time Temperature Precipitation Wind Pressure Humidity
    00:00 +6°C° 0.3 mm 1 mps 593 mmHg 98%
    01:00 +6°C° 0.3 mm 1 mps 592 mmHg 98%
    02:00 +6°C° 0.2 mm 1 mps 592 mmHg 98%
    03:00 +5°C° 0.2 mm 1 mps 592 mmHg 98%
    04:00 +5°C° 0.2 mm 1 mps 592 mmHg 98%
    05:00 +6°C° 0.1 mm 1 mps 592 mmHg 97%
    06:00 +6°C° 0.1 mm 1 mps 592 mmHg 96%
    07:00 +7°C° 0.1 mm 1 mps 592 mmHg 95%
    08:00 +7°C° 0.2 mm 1 mps 593 mmHg 94%
    09:00 +8°C° 0.2 mm 1 mps 593 mmHg 92%
    10:00 +9°C° 0.2 mm 1 mps 594 mmHg 90%
    11:00 +8°C° 0.8 mm 1 mps 593 mmHg 92%
    12:00 +8°C° 0.8 mm 1 mps 593 mmHg 94%
    13:00 +6°C° 0.8 mm 2 mps 593 mmHg 96%
    14:00 +6°C° 1.4 mm 2 mps 593 mmHg 97%
    15:00 +5°C° 1.4 mm 2 mps 593 mmHg 97%
    16:00 +5°C° 1.4 mm 2 mps 593 mmHg 98%
    17:00 +4°C° 2 mm 2 mps 593 mmHg 98%
    18:00 +4°C° 2 mm 2 mps 593 mmHg 98%
    19:00 +3°C° 2 mm 2 mps 592 mmHg 99%
    20:00 +4°C° 2.5 mm 1 mps 593 mmHg 99%
    21:00 +3°C° 2.5 mm 1 mps 593 mmHg 98%
    22:00 +3°C° 2.5 mm 1 mps 593 mmHg 98%
    23:00 +3°C° 1.4 mm 1 mps 593 mmHg 98%

    8 June, Monday

    Time Temperature Precipitation Wind Pressure Humidity
    00:00 +3°C° 1.4 mm 1 mps 592 mmHg 98%
    01:00 +3°C° 1.4 mm 1 mps 592 mmHg 98%
    02:00 +3°C° 1.4 mm 1 mps 592 mmHg 98%
    03:00 +3°C° 1.4 mm 1 mps 592 mmHg 98%
    04:00 +3°C° 1.4 mm 1 mps 592 mmHg 98%
    05:00 +2°C° 1.1 mm 1 mps 592 mmHg 98%
    06:00 +2°C° 1.1 mm 1 mps 592 mmHg 98%
    07:00 +2°C° 1.1 mm 1 mps 592 mmHg 98%
    08:00 +2°C° 1.4 mm 1 mps 592 mmHg 98%
    09:00 -1°C° 1.4 mm 2 mps 592 mmHg 98%
    10:00 -1°C° 1.4 mm 2 mps 592 mmHg 98%
    11:00 -1°C° 1.2 mm 2 mps 593 mmHg 97%
    12:00 +1°C° 1.2 mm 2 mps 593 mmHg 97%
    13:00 +1°C° 1.2 mm 2 mps 593 mmHg 96%
    14:00 +1°C° 1.2 mm 2 mps 593 mmHg 96%
    15:00 +2°C° 1.2 mm 1 mps 593 mmHg 96%
    16:00 +2°C° 1.2 mm 1 mps 593 mmHg 96%
    17:00 +3°C° 0.5 mm 1 mps 593 mmHg 96%
    18:00 +3°C° 0.5 mm 1 mps 593 mmHg 96%
    19:00 +3°C° 0.5 mm 1 mps 593 mmHg 96%
    20:00 +2°C° 0 mm 1 mps 593 mmHg 92%
    21:00 +1°C° 0 mm 1 mps 593 mmHg 87%
    22:00 -2°C° 0 mm 2 mps 593 mmHg 83%
    23:00 -2°C° 0 mm 2 mps 593 mmHg 83%
    Show more